TimeEST,TemperatureF,Dew PointF,Humidity,Sea Level PressureIn,VisibilityMPH,Wind Direction,Wind SpeedMPH,Gust SpeedMPH,PrecipitationIn,Events,Conditions,WindDirDegrees,DateUTC
12:54 AM,14.0,-5.1,43,30.26,10.0,West,9.2,-,N/A,,Clear,280,2013-01-23 05:54:00
1:54 AM,14.0,-5.1,43,30.27,10.0,West,9.2,-,N/A,,Clear,280,2013-01-23 06:54:00
2:54 AM,12.9,-5.1,45,30.28,10.0,West,6.9,-,N/A,,Clear,280,2013-01-23 07:54:00
3:54 AM,12.9,-4.0,47,30.27,10.0,West,5.8,-,N/A,,Clear,260,2013-01-23 08:54:00
4:54 AM,12.9,-2.9,49,30.27,10.0,West,8.1,-,N/A,,Clear,280,2013-01-23 09:54:00
5:54 AM,12.9,-2.9,49,30.27,10.0,West,9.2,-,N/A,,Clear,280,2013-01-23 10:54:00
6:54 AM,12.9,-2.9,49,30.28,10.0,West,6.9,-,N/A,,Clear,270,2013-01-23 11:54:00
7:54 AM,12.9,-2.9,49,30.29,10.0,West,9.2,-,N/A,,Clear,270,2013-01-23 12:54:00
8:54 AM,15.1,-2.0,47,30.30,10.0,WNW,8.1,17.3,N/A,,Clear,290,2013-01-23 13:54:00
10:54 AM,17.1,-2.0,43,30.30,10.0,West,13.8,-,N/A,,Mostly Cloudy,260,2013-01-23 15:54:00
11:54 AM,18.0,-2.9,40,30.27,10.0,West,15.0,21.9,N/A,,Overcast,270,2013-01-23 16:54:00
12:54 PM,19.0,-2.0,40,30.23,10.0,WNW,13.8,19.6,N/A,,Overcast,290,2013-01-23 17:54:00
1:54 PM,19.0,-2.9,38,30.22,10.0,West,11.5,20.7,N/A,,Mostly Cloudy,260,2013-01-23 18:54:00
2:54 PM,19.9,-2.0,38,30.22,10.0,West,11.5,-,N/A,,Mostly Cloudy,260,2013-01-23 19:54:00
3:54 PM,19.0,-0.9,42,30.22,10.0,West,11.5,-,N/A,,Mostly Cloudy,280,2013-01-23 20:54:00
4:54 PM,19.0,-0.9,42,30.22,10.0,West,10.4,17.3,N/A,,Scattered Clouds,260,2013-01-23 21:54:00
5:54 PM,18.0,-0.0,45,30.24,10.0,Calm,Calm,-,N/A,,Clear,0,2013-01-23 22:54:00
6:54 PM,14.0,1.0,56,30.23,10.0,Calm,Calm,-,N/A,,Clear,0,2013-01-23 23:54:00
7:54 PM,12.9,1.0,59,30.22,10.0,Calm,Calm,-,N/A,,Clear,0,2013-01-24 00:54:00
8:54 PM,10.9,1.0,64,30.22,10.0,Calm,Calm,-,N/A,,Clear,0,2013-01-24 01:54:00
9:54 PM,10.0,1.9,70,30.22,10.0,Calm,Calm,-,N/A,,Clear,0,2013-01-24 02:54:00
10:54 PM,10.9,3.9,73,30.22,10.0,Calm,Calm,-,N/A,,Overcast,0,2013-01-24 03:54:00
11:54 PM,10.9,5.0,77,30.20,10.0,Calm,Calm,-,N/A,,Overcast,0,2013-01-24 04:54:00